BREEZE-M DEB [TANK] (43434 NORAD) Tracking and Keplerian Element Data

This shows tracking and keplerian element data for the satellite.

Feedback or suggestion? Click here.




ElementValue
Catalog43434
NameBREEZE-M DEB [TANK]
Epoch Orbit48
Epoch Day135.44238231
Epoch Year2018
RAAN181.8293
Inclination48.6756
Eccentricity0.7228498
Argument of Perigee6.1155
Mean Anonmoly359.5241
Mean Motion2.27566489
Decay Rate1.24E-06
L11 43434U 18037C 18135.44238231 .00000124 00000-0 28304-3 0 9999
L22 43434 48.6756 181.8293 7228498 6.1155 359.5241 2.27566489 486

Live tracking and technical data element details for BREEZE-M DEB [TANK] (NORAD 43434). BREEZE-M DEB [TANK] can be tracked NOW for your location showing map with azimuth and elevation plus other details from your city location.

Track the satellite on the map from your city or location and see movement details for azimuth, elevation, latitude, longitude, range, height, and movement on the map or in text.







IsCatalogInMostPopularTable: catalog: 43434, numindb: 51
Update: records affected: 1



GetName: 43434 BREEZE-M DEB [TANK]

Hit Count: updated at: Sat, 17 Nov 2018 04:38:18 GMT